| time (UTC) | temp F | wind direction | speed MPH | gust MPH | rain 1hr in | rain 24hr in | rain mn in | humidity % | barometer mb |
| 20260509154136 | 65 | 62 | 2.0 | 7.0 | 0.00 | 0.00 | 0.00 | 55 | 1017.2 |
| 20260509153702 | 65 | 73 | 3.0 | 7.0 | 0.00 | 0.00 | 0.00 | 56 | 1017.2 |
| 20260509152718 | 65 | 33 | 5.0 | 11.0 | 0.00 | 0.00 | 0.00 | 57 | 1017.2 |
| 20260509151638 | 66 | 0 | 4.0 | 10.0 | 0.00 | 0.00 | 0.00 | 56 | 1017.3 |
| 20260509151140 | 66 | 8 | 4.0 | 10.0 | 0.00 | 0.00 | 0.00 | 57 | 1017.3 |
| 20260509150709 | 66 | 45 | 4.0 | 9.0 | 0.00 | 0.00 | 0.00 | 57 | 1017.5 |
| 20260509145640 | 66 | 5 | 3.0 | 10.0 | 0.00 | 0.00 | 0.00 | 55 | 1017.5 |
| 20260509145146 | 67 | 25 | 2.0 | 7.0 | 0.00 | 0.00 | 0.00 | 57 | 1017.4 |
| 20260509144640 | 66 | 48 | 3.0 | 7.0 | 0.00 | 0.00 | 0.00 | 54 | 1017.5 |
| 20260509144134 | 66 | 50 | 4.0 | 7.0 | 0.00 | 0.00 | 0.00 | 53 | 1017.5 |
| 20260509143711 | 66 | 57 | 5.0 | 13.0 | 0.00 | 0.00 | 0.00 | 58 | 1017.5 |
| 20260509142637 | 65 | 39 | 5.0 | 11.0 | 0.00 | 0.00 | 0.00 | 53 | 1017.5 |
| 20260509142146 | 66 | 48 | 5.0 | 11.0 | 0.00 | 0.00 | 0.00 | 59 | 1017.6 |
| 20260509141634 | 66 | 36 | 4.0 | 10.0 | 0.00 | 0.00 | 0.00 | 57 | 1017.6 |
| 20260509141134 | 65 | 2 | 4.0 | 10.0 | 0.00 | 0.00 | 0.00 | 60 | 1017.6 |
| 20260509140632 | 64 | 351 | 4.0 | 9.0 | 0.00 | 0.00 | 0.00 | 58 | 1017.8 |
| 20260509140134 | 65 | 354 | 5.0 | 9.0 | 0.00 | 0.00 | 0.00 | 56 | 1017.9 |
| 20260509135720 | 66 | 315 | 4.0 | 9.0 | 0.00 | 0.00 | 0.00 | 52 | 1017.8 |
| 20260509134635 | 65 | 27 | 6.0 | 11.0 | 0.00 | 0.00 | 0.00 | 56 | 1017.9 |
| 20260509134134 | 65 | 56 | 4.0 | 10.0 | 0.00 | 0.00 | 0.00 | 58 | 1017.9 |
| 20260509133634 | 65 | 339 | 5.0 | 12.0 | 0.00 | 0.00 | 0.00 | 58 | 1017.9 |
| 20260509133134 | 64 | 308 | 5.0 | 12.0 | 0.00 | 0.00 | 0.00 | 57 | 1018.0 |
| 20260509132709 | 64 | 339 | 5.0 | 12.0 | 0.00 | 0.00 | 0.00 | 60 | 1018.2 |
| 20260509131631 | 64 | 325 | 4.0 | 8.0 | 0.00 | 0.00 | 0.00 | 56 | 1018.3 |
| 20260509131131 | 64 | 13 | 3.0 | 8.0 | 0.00 | 0.00 | 0.00 | 58 | 1018.3 |
| 20260509130659 | 64 | 264 | 4.0 | 9.0 | 0.00 | 0.00 | 0.00 | 54 | 1018.3 |
| 20260509125630 | 66 | 330 | 3.0 | 6.0 | 0.00 | 0.00 | 0.00 | 56 | 1018.6 |
| 20260509125132 | 65 | 4 | 4.0 | 8.0 | 0.00 | 0.00 | 0.00 | 59 | 1018.6 |
| 20260509124631 | 65 | 23 | 4.0 | 9.0 | 0.00 | 0.00 | 0.00 | 57 | 1018.7 |
| 20260509124128 | 66 | 48 | 3.0 | 9.0 | 0.00 | 0.00 | 0.00 | 60 | 1018.7 |
| 20260509123627 | 66 | 82 | 3.0 | 8.0 | 0.00 | 0.00 | 0.00 | 57 | 1018.7 |
| 20260509123128 | 65 | 65 | 3.0 | 6.0 | 0.00 | 0.00 | 0.00 | 61 | 1018.8 |
| 20260509122622 | 65 | 63 | 4.0 | 7.0 | 0.00 | 0.00 | 0.00 | 60 | 1018.8 |
| 20260509122124 | 64 | 335 | 3.0 | 7.0 | 0.00 | 0.00 | 0.00 | 55 | 1018.8 |
| 20260509121624 | 64 | 3 | 3.0 | 7.0 | 0.00 | 0.00 | 0.00 | 61 | 1018.8 |
| 20260509121120 | 64 | 58 | 4.0 | 9.0 | 0.00 | 0.00 | 0.00 | 60 | 1018.9 |
| 20260509120730 | 65 | 354 | 5.0 | 10.0 | 0.00 | 0.00 | 0.00 | 62 | 1018.9 |
| 20260509115122 | 66 | 0 | 4.0 | 10.0 | 0.00 | 0.00 | 0.00 | 61 | 1019.1 |
| 20260509114622 | 65 | 74 | 3.0 | 9.0 | 0.00 | 0.00 | 0.00 | 59 | 1019.1 |
| 20260509114123 | 64 | 85 | 3.0 | 8.0 | 0.00 | 0.00 | 0.00 | 59 | 1019.2 |
| 20260509113619 | 63 | 66 | 4.0 | 8.0 | 0.00 | 0.00 | 0.00 | 61 | 1019.3 |
| 20260509113120 | 63 | 94 | 3.0 | 7.0 | 0.00 | 0.00 | 0.00 | 63 | 1019.3 |
| 20260509112622 | 63 | 35 | 4.0 | 9.0 | 0.00 | 0.00 | 0.00 | 66 | 1019.3 |
| 20260509112123 | 63 | 32 | 4.0 | 9.0 | 0.00 | 0.00 | 0.00 | 65 | 1019.4 |
| 20260509111618 | 64 | 67 | 4.0 | 8.0 | 0.00 | 0.00 | 0.00 | 64 | 1019.4 |
| 20260509111118 | 65 | 83 | 5.0 | 10.0 | 0.00 | 0.00 | 0.00 | 63 | 1019.4 |
| 20260509110619 | 65 | 320 | 4.0 | 10.0 | 0.00 | 0.00 | 0.00 | 62 | 1019.5 |
| 20260509110118 | 65 | 21 | 4.0 | 9.0 | 0.00 | 0.00 | 0.00 | 66 | 1019.4 |
| 20260509105619 | 64 | 295 | 5.0 | 9.0 | 0.00 | 0.00 | 0.00 | 63 | 1019.5 |
| 20260509105118 | 64 | 33 | 5.0 | 9.0 | 0.00 | 0.00 | 0.00 | 63 | 1019.5 |
| 20260509104617 | 64 | 75 | 6.0 | 9.0 | 0.00 | 0.00 | 0.00 | 67 | 1019.6 |
| 20260509104120 | 64 | 25 | 5.0 | 9.0 | 0.00 | 0.00 | 0.00 | 65 | 1019.6 |
| 20260509103649 | 64 | 29 | 5.0 | 9.0 | 0.00 | 0.00 | 0.00 | 65 | 1019.6 |
| 20260509102617 | 64 | 25 | 5.0 | 11.0 | 0.00 | 0.00 | 0.00 | 70 | 1019.7 |
| 20260509102117 | 64 | 28 | 5.0 | 11.0 | 0.00 | 0.00 | 0.00 | 68 | 1019.7 |
| 20260509101618 | 64 | 65 | 4.0 | 9.0 | 0.00 | 0.00 | 0.00 | 67 | 1019.7 |
| 20260509101118 | 63 | 72 | 3.0 | 10.0 | 0.00 | 0.00 | 0.00 | 69 | 1019.8 |
| 20260509100617 | 64 | 39 | 5.0 | 11.0 | 0.00 | 0.00 | 0.00 | 69 | 1019.8 |
| 20260509100115 | 64 | 29 | 4.0 | 11.0 | 0.00 | 0.00 | 0.00 | 68 | 1019.8 |
| 20260509095615 | 64 | 23 | 3.0 | 9.0 | 0.00 | 0.00 | 0.00 | 70 | 1019.7 |
| 20260509095116 | 63 | 102 | 3.0 | 6.0 | 0.00 | 0.00 | 0.00 | 69 | 1019.7 |
| 20260509094643 | 63 | 29 | 4.0 | 9.0 | 0.00 | 0.00 | 0.00 | 70 | 1019.7 |
| 20260509093618 | 62 | 79 | 4.0 | 8.0 | 0.00 | 0.00 | 0.00 | 69 | 1019.8 |
| 20260509093115 | 62 | 120 | 4.0 | 10.0 | 0.00 | 0.00 | 0.00 | 71 | 1019.9 |
| 20260509092613 | 62 | 58 | 4.0 | 10.0 | 0.00 | 0.00 | 0.00 | 69 | 1019.9 |
| 20260509092238 | 62 | 75 | 5.0 | 9.0 | 0.00 | 0.00 | 0.00 | 70 | 1019.9 |
| 20260509090610 | 62 | 86 | 3.0 | 9.0 | 0.00 | 0.00 | 0.00 | 70 | 1019.9 |
| 20260509090111 | 62 | 92 | 4.0 | 10.0 | 0.00 | 0.00 | 0.00 | 70 | 1019.9 |
| 20260509085610 | 62 | 88 | 5.0 | 10.0 | 0.00 | 0.00 | 0.00 | 72 | 1019.9 |
| 20260509085110 | 61 | 68 | 5.0 | 9.0 | 0.00 | 0.00 | 0.00 | 72 | 1019.9 |
| 20260509084611 | 61 | 88 | 5.0 | 10.0 | 0.00 | 0.00 | 0.00 | 72 | 1019.8 |
| 20260509084110 | 61 | 74 | 6.0 | 10.0 | 0.00 | 0.00 | 0.00 | 72 | 1019.9 |
| 20260509083614 | 61 | 65 | 6.0 | 9.0 | 0.00 | 0.00 | 0.00 | 72 | 1019.9 |
| 20260509083110 | 61 | 59 | 4.0 | 9.0 | 0.00 | 0.00 | 0.00 | 71 | 1019.9 |
| 20260509082610 | 61 | 77 | 3.0 | 9.0 | 0.00 | 0.00 | 0.00 | 72 | 1019.8 |
| 20260509082112 | 60 | 56 | 6.0 | 11.0 | 0.00 | 0.00 | 0.00 | 72 | 1019.9 |
| 20260509081610 | 60 | 80 | 8.0 | 11.0 | 0.00 | 0.00 | 0.00 | 73 | 1019.8 |
| 20260509081109 | 60 | 69 | 6.0 | 10.0 | 0.00 | 0.00 | 0.00 | 74 | 1019.8 |
| 20260509080645 | 60 | 71 | 6.0 | 10.0 | 0.00 | 0.00 | 0.00 | 75 | 1019.9 |
| 20260509075608 | 60 | 57 | 6.0 | 12.0 | 0.00 | 0.00 | 0.00 | 77 | 1019.9 |
| 20260509075112 | 59 | 46 | 5.0 | 9.0 | 0.00 | 0.00 | 0.00 | 78 | 1019.8 |
| 20260509074635 | 59 | 349 | 5.0 | 9.0 | 0.00 | 0.00 | 0.00 | 77 | 1019.8 |
| 20260509073610 | 59 | 27 | 4.0 | 9.0 | 0.00 | 0.00 | 0.00 | 80 | 1019.8 |
| 20260509073105 | 59 | 354 | 3.0 | 7.0 | 0.00 | 0.00 | 0.00 | 81 | 1019.8 |
| 20260509072606 | 58 | 19 | 3.0 | 7.0 | 0.00 | 0.00 | 0.00 | 81 | 1019.9 |
| 20260509072106 | 58 | 56 | 4.0 | 6.0 | 0.00 | 0.00 | 0.00 | 82 | 1019.9 |
| 20260509071636 | 57 | 43 | 3.0 | 7.0 | 0.00 | 0.00 | 0.00 | 83 | 1019.9 |
| 20260509070607 | 56 | 11 | 4.0 | 7.0 | 0.00 | 0.00 | 0.00 | 85 | 1019.9 |
| 20260509070105 | 56 | 74 | 3.0 | 5.0 | 0.00 | 0.00 | 0.00 | 86 | 1019.9 |
| 20260509065604 | 55 | 85 | 3.0 | 8.0 | 0.00 | 0.00 | 0.00 | 86 | 1019.9 |
| 20260509065105 | 55 | 50 | 3.0 | 8.0 | 0.00 | 0.00 | 0.00 | 86 | 1019.9 |
| 20260509064606 | 55 | 12 | 3.0 | 6.0 | 0.00 | 0.00 | 0.00 | 87 | 1019.9 |
| 20260509064104 | 54 | 4 | 3.0 | 6.0 | 0.00 | 0.00 | 0.00 | 87 | 1019.9 |
| 20260509063603 | 54 | 23 | 4.0 | 6.0 | 0.00 | 0.00 | 0.00 | 87 | 1019.9 |
| 20260509063107 | 54 | 42 | 4.0 | 8.0 | 0.00 | 0.00 | 0.00 | 87 | 1019.9 |
| 20260509062608 | 54 | 11 | 3.0 | 8.0 | 0.00 | 0.00 | 0.00 | 88 | 1019.9 |
| 20260509062107 | 53 | 10 | 3.0 | 6.0 | 0.00 | 0.00 | 0.00 | 89 | 1019.9 |
| 20260509061607 | 53 | 54 | 3.0 | 6.0 | 0.00 | 0.00 | 0.00 | 89 | 1019.9 |
| 20260509061135 | 53 | 82 | 2.0 | 5.0 | 0.00 | 0.00 | 0.00 | 90 | 1019.9 |
| 20260509060104 | 52 | 25 | 2.0 | 5.0 | 0.00 | 0.00 | 0.00 | 92 | 1020.0 |
| 20260509055604 | 52 | 18 | 2.0 | 5.0 | 0.00 | 0.00 | 0.00 | 92 | 1019.9 |
| 20260509055105 | 51 | 44 | 2.0 | 4.0 | 0.00 | 0.00 | 0.00 | 93 | 1019.9 |
| 20260509054602 | 51 | 65 | 2.0 | 4.0 | 0.00 | 0.00 | 0.00 | 94 | 1019.8 |
| 20260509054104 | 51 | 60 | 2.0 | 4.0 | 0.00 | 0.00 | 0.00 | 94 | 1019.8 |
| 20260509053603 | 50 | 28 | 2.0 | 4.0 | 0.00 | 0.00 | 0.00 | 94 | 1019.9 |
| 20260509053104 | 49 | 30 | 2.0 | 4.0 | 0.00 | 0.00 | 0.00 | 94 | 1019.8 |
| 20260509052634 | 49 | 7 | 3.0 | 4.0 | 0.00 | 0.00 | 0.00 | 94 | 1019.7 |
| 20260509051644 | 48 | 0 | 2.0 | 4.0 | 0.00 | 0.00 | 0.00 | 94 | 1019.7 |
| 20260509050630 | 47 | 45 | 2.0 | 5.0 | 0.00 | 0.00 | 0.00 | 93 | 1019.7 |
| 20260509045606 | 47 | 9 | 1.0 | 3.0 | 0.00 | 0.00 | 0.00 | 93 | 1019.7 |
| 20260509045103 | 47 | 9 | 1.0 | 3.0 | 0.00 | 0.00 | 0.00 | 93 | 1019.6 |
| 20260509044606 | 47 | 9 | 1.0 | 3.0 | 0.00 | 0.00 | 0.00 | 92 | 1019.6 |
| 20260509044059 | 47 | 9 | 2.0 | 3.0 | 0.00 | 0.00 | 0.00 | 92 | 1019.6 |
| 20260509043559 | 47 | 9 | 2.0 | 3.0 | 0.00 | 0.00 | 0.00 | 92 | 1019.6 |
| 20260509043126 | 47 | 9 | 2.0 | 4.0 | 0.00 | 0.00 | 0.00 | 92 | 1019.5 |
| 20260509042059 | 47 | 29 | 2.0 | 3.0 | 0.00 | 0.00 | 0.00 | 92 | 1019.6 |
| 20260509041602 | 47 | 29 | 2.0 | 3.0 | 0.00 | 0.00 | 0.00 | 92 | 1019.4 |
| 20260509041059 | 47 | 29 | 2.0 | 3.0 | 0.00 | 0.00 | 0.00 | 92 | 1019.5 |
| 20260509040556 | 47 | 33 | 1.0 | 3.0 | 0.00 | 0.00 | 0.00 | 91 | 1019.5 |
| 20260509040055 | 47 | 39 | 1.0 | 2.0 | 0.00 | 0.00 | 0.00 | 91 | 1019.5 |
| 20260509035554 | 47 | 39 | 1.0 | 3.0 | 0.00 | 0.00 | 0.00 | 91 | 1019.4 |
| 20260509035056 | 48 | 39 | 1.0 | 3.0 | 0.00 | 0.00 | 0.00 | 91 | 1019.4 |
| 20260509034632 | 48 | 35 | 2.0 | 3.0 | 0.00 | 0.00 | 0.00 | 91 | 1019.4 |
| 20260509033553 | 48 | 37 | 2.0 | 3.0 | 0.00 | 0.00 | 0.00 | 91 | 1019.4 |
| 20260509033051 | 48 | 48 | 2.0 | 3.0 | 0.00 | 0.00 | 0.00 | 90 | 1019.4 |
| 20260509032555 | 48 | 60 | 2.0 | 3.0 | 0.00 | 0.00 | 0.00 | 90 | 1019.5 |
| 20260509032051 | 49 | 60 | 2.0 | 4.0 | 0.00 | 0.00 | 0.00 | 90 | 1019.5 |
| 20260509031550 | 49 | 60 | 2.0 | 4.0 | 0.00 | 0.00 | 0.00 | 90 | 1019.5 |
| 20260509031057 | 49 | 48 | 2.0 | 4.0 | 0.00 | 0.00 | 0.00 | 91 | 1019.5 |
| 20260509030633 | 49 | 59 | 3.0 | 4.0 | 0.00 | 0.00 | 0.00 | 91 | 1019.6 |
| 20260509025558 | 49 | 51 | 4.0 | 6.0 | 0.00 | 0.00 | 0.00 | 91 | 1019.6 |
| 20260509025233 | 49 | 52 | 3.0 | 6.0 | 0.00 | 0.00 | 0.00 | 91 | 1019.6 |
| 20260509023548 | 48 | 68 | 3.0 | 4.0 | 0.00 | 0.00 | 0.00 | 91 | 1019.6 |
| 20260509023105 | 48 | 70 | 2.0 | 4.0 | 0.00 | 0.00 | 0.00 | 90 | 1019.6 |
| 20260509022714 | 48 | 48 | 2.0 | 4.0 | 0.00 | 0.00 | 0.00 | 90 | 1019.6 |
| 20260509020543 | 48 | 60 | 2.0 | 3.0 | 0.00 | 0.00 | 0.00 | 89 | 1019.7 |
| 20260509020039 | 48 | 60 | 2.0 | 3.0 | 0.00 | 0.00 | 0.00 | 88 | 1019.6 |
| 20260509015539 | 48 | 101 | 1.0 | 2.0 | 0.00 | 0.00 | 0.00 | 88 | 1019.6 |
| 20260509015039 | 48 | 102 | 1.0 | 2.0 | 0.00 | 0.00 | 0.00 | 88 | 1019.6 |
| 20260509014534 | 48 | 102 | 0.0 | 1.0 | 0.00 | 0.00 | 0.00 | 88 | 1019.6 |
| 20260509014034 | 49 | 102 | 0.0 | 1.0 | 0.00 | 0.00 | 0.00 | 87 | 1019.6 |
| 20260509013534 | 49 | 101 | 0.0 | 0.0 | 0.00 | 0.00 | 0.00 | 88 | 1019.6 |
| 20260509013031 | 49 | 101 | 0.0 | 1.0 | 0.00 | 0.00 | 0.00 | 87 | 1019.6 |
| 20260509012531 | 49 | 101 | 0.0 | 1.0 | 0.00 | 0.00 | 0.00 | 87 | 1019.7 |
| 20260509012032 | 49 | 102 | 1.0 | 2.0 | 0.00 | 0.00 | 0.00 | 87 | 1019.6 |
| 20260509011529 | 50 | 102 | 1.0 | 2.0 | 0.00 | 0.00 | 0.00 | 87 | 1019.7 |
| 20260509011029 | 50 | 102 | 1.0 | 3.0 | 0.00 | 0.00 | 0.00 | 87 | 1019.7 |
| 20260509010530 | 50 | 89 | 1.0 | 3.0 | 0.00 | 0.00 | 0.00 | 87 | 1019.7 |
| 20260509010027 | 50 | 98 | 2.0 | 3.0 | 0.00 | 0.00 | 0.00 | 87 | 1019.7 |
| 20260509005531 | 50 | 83 | 3.0 | 6.0 | 0.00 | 0.00 | 0.00 | 87 | 1019.7 |
| 20260509005027 | 50 | 87 | 4.0 | 6.0 | 0.00 | 0.00 | 0.00 | 87 | 1019.7 |
| 20260509004527 | 50 | 74 | 3.0 | 6.0 | 0.00 | 0.00 | 0.00 | 87 | 1019.6 |
| 20260509004027 | 50 | 75 | 2.0 | 6.0 | 0.00 | 0.00 | 0.00 | 87 | 1019.6 |
| 20260509003526 | 50 | 83 | 2.0 | 4.0 | 0.00 | 0.00 | 0.00 | 87 | 1019.6 |
| 20260509003033 | 50 | 91 | 2.0 | 6.0 | 0.00 | 0.00 | 0.00 | 87 | 1019.7 |
| 20260509002526 | 50 | 82 | 3.0 | 6.0 | 0.00 | 0.00 | 0.00 | 86 | 1019.7 |
| 20260509002027 | 50 | 79 | 3.0 | 6.0 | 0.00 | 0.00 | 0.00 | 86 | 1019.7 |
| 20260509001528 | 51 | 75 | 3.0 | 6.0 | 0.00 | 0.00 | 0.00 | 86 | 1019.7 |
| 20260509001030 | 51 | 73 | 3.0 | 6.0 | 0.00 | 0.00 | 0.00 | 86 | 1019.7 |
| 20260509000525 | 51 | 73 | 3.0 | 7.0 | 0.00 | 0.00 | 0.00 | 85 | 1019.8 |
| 20260509000029 | 51 | 81 | 3.0 | 7.0 | 0.00 | 0.00 | 0.00 | 85 | 1019.7 |
| 20260508235526 | 51 | 77 | 4.0 | 7.0 | 0.00 | 0.00 | 0.00 | 85 | 1019.8 |
| 20260508235029 | 51 | 82 | 4.0 | 7.0 | 0.00 | 0.00 | 0.00 | 84 | 1019.7 |
| 20260508234526 | 51 | 66 | 4.0 | 7.0 | 0.00 | 0.00 | 0.00 | 85 | 1019.8 |
| 20260508234028 | 51 | 72 | 5.0 | 7.0 | 0.00 | 0.00 | 0.00 | 85 | 1019.7 |
| 20260508233526 | 51 | 71 | 5.0 | 7.0 | 0.00 | 0.00 | 0.00 | 85 | 1019.8 |
| 20260508233025 | 51 | 54 | 5.0 | 7.0 | 0.00 | 0.00 | 0.00 | 86 | 1019.7 |
| 20260508232525 | 51 | 58 | 4.0 | 7.0 | 0.00 | 0.00 | 0.00 | 86 | 1019.8 |
| 20260508232025 | 50 | 56 | 3.0 | 6.0 | 0.00 | 0.00 | 0.00 | 87 | 1019.7 |
| 20260508231524 | 50 | 72 | 2.0 | 6.0 | 0.00 | 0.00 | 0.00 | 86 | 1019.7 |
| 20260508231116 | 50 | 63 | 2.0 | 4.0 | 0.00 | 0.00 | 0.00 | 85 | 1019.6 |
| 20260508225519 | 51 | 0 | 1.0 | 2.0 | 0.00 | 0.00 | 0.00 | 84 | 1019.7 |
| 20260508225017 | 51 | 0 | 1.0 | 2.0 | 0.00 | 0.00 | 0.00 | 84 | 1019.6 |
| 20260508224517 | 51 | 0 | 1.0 | 2.0 | 0.00 | 0.00 | 0.00 | 82 | 1019.7 |
| 20260508224016 | 51 | 0 | 1.0 | 2.0 | 0.00 | 0.00 | 0.00 | 82 | 1019.6 |
| 20260508223514 | 51 | 0 | 1.0 | 3.0 | 0.00 | 0.00 | 0.00 | 82 | 1019.7 |
| 20260508223013 | 51 | 0 | 1.0 | 3.0 | 0.00 | 0.00 | 0.00 | 81 | 1019.7 |
| 20260508222512 | 52 | 0 | 1.0 | 3.0 | 0.00 | 0.00 | 0.00 | 80 | 1019.8 |
| 20260508222014 | 52 | 0 | 0.0 | 2.0 | 0.00 | 0.00 | 0.00 | 80 | 1019.8 |
| 20260508221513 | 52 | 0 | 1.0 | 2.0 | 0.00 | 0.00 | 0.00 | 80 | 1019.7 |
| 20260508221056 | 52 | 0 | 1.0 | 3.0 | 0.00 | 0.00 | 0.00 | 80 | 1019.8 |
| 20260508215510 | 53 | 354 | 2.0 | 4.0 | 0.00 | 0.00 | 0.00 | 79 | 1019.7 |
| 20260508215009 | 53 | 15 | 1.0 | 4.0 | 0.00 | 0.00 | 0.00 | 79 | 1019.7 |
| 20260508214507 | 53 | 16 | 1.0 | 4.0 | 0.00 | 0.00 | 0.00 | 78 | 1019.7 |
| 20260508214034 | 54 | 35 | 2.0 | 4.0 | 0.00 | 0.00 | 0.00 | 77 | 1019.8 |
| 20260508213008 | 54 | 29 | 1.0 | 2.0 | 0.00 | 0.00 | 0.00 | 76 | 1019.8 |
| 20260508212528 | 54 | 29 | 1.0 | 2.0 | 0.00 | 0.00 | 0.00 | 76 | 1019.9 |
| 20260508211505 | 55 | 10 | 1.0 | 3.0 | 0.00 | 0.00 | 0.00 | 75 | 1019.9 |
| 20260508211031 | 55 | 2 | 1.0 | 4.0 | 0.00 | 0.00 | 0.00 | 75 | 1019.8 |
| 20260508210007 | 55 | 13 | 1.0 | 4.0 | 0.00 | 0.00 | 0.00 | 74 | 1019.7 |
| 20260508205504 | 55 | 16 | 2.0 | 4.0 | 0.00 | 0.00 | 0.00 | 74 | 1019.6 |
| 20260508205005 | 56 | 2 | 2.0 | 4.0 | 0.00 | 0.00 | 0.00 | 74 | 1019.6 |
| 20260508204503 | 56 | 10 | 2.0 | 4.0 | 0.00 | 0.00 | 0.00 | 74 | 1019.7 |
| 20260508204005 | 56 | 44 | 1.0 | 2.0 | 0.00 | 0.00 | 0.00 | 74 | 1019.6 |
| 20260508203504 | 56 | 357 | 0.0 | 2.0 | 0.00 | 0.00 | 0.00 | 73 | 1019.7 |
| 20260508203003 | 56 | 357 | 1.0 | 4.0 | 0.00 | 0.00 | 0.00 | 73 | 1019.6 |
| 20260508202502 | 56 | 357 | 2.0 | 5.0 | 0.00 | 0.00 | 0.00 | 72 | 1019.6 |
| 20260508202005 | 56 | 356 | 2.0 | 5.0 | 0.00 | 0.00 | 0.00 | 72 | 1019.7 |
| 20260508201502 | 56 | 330 | 1.0 | 3.0 | 0.00 | 0.00 | 0.00 | 72 | 1019.7 |
| 20260508201014 | 57 | 356 | 0.0 | 2.0 | 0.00 | 0.00 | 0.00 | 71 | 1019.6 |
| 20260508200503 | 57 | 356 | 1.0 | 4.0 | 0.00 | 0.00 | 0.00 | 71 | 1019.6 |
| 20260508200001 | 57 | 9 | 2.0 | 4.0 | 0.00 | 0.00 | 0.00 | 71 | 1019.6 |
| 20260508195505 | 57 | 0 | 2.0 | 4.0 | 0.00 | 0.00 | 0.00 | 71 | 1019.6 |
| 20260508195003 | 57 | 349 | 2.0 | 4.0 | 0.00 | 0.00 | 0.00 | 71 | 1019.5 |
| 20260508194501 | 57 | 1 | 1.0 | 4.0 | 0.00 | 0.00 | 0.00 | 71 | 1019.5 |
| 20260508194011 | 57 | 27 | 0.0 | 3.0 | 0.00 | 0.00 | 0.00 | 71 | 1019.5 |
| 20260508193530 | 57 | 8 | 1.0 | 2.0 | 0.00 | 0.00 | 0.00 | 71 | 1019.5 |
| 20260508192459 | 57 | 12 | 0.0 | 2.0 | 0.00 | 0.00 | 0.00 | 70 | 1019.4 |
| 20260508192000 | 57 | 49 | 1.0 | 3.0 | 0.00 | 0.00 | 0.00 | 69 | 1019.3 |
| 20260508191504 | 58 | 48 | 2.0 | 5.0 | 0.00 | 0.00 | 0.00 | 69 | 1019.2 |
| 20260508191003 | 58 | 335 | 2.0 | 5.0 | 0.00 | 0.00 | 0.00 | 68 | 1019.3 |
| 20260508190501 | 58 | 16 | 1.0 | 3.0 | 0.00 | 0.00 | 0.00 | 69 | 1019.2 |
| 20260508190037 | 58 | 12 | 2.0 | 3.0 | 0.00 | 0.00 | 0.00 | 68 | 1019.1 |
| 20260508184952 | 59 | 335 | 2.0 | 3.0 | 0.00 | 0.00 | 0.00 | 67 | 1019.0 |
| 20260508184452 | 59 | 335 | 2.0 | 4.0 | 0.00 | 0.00 | 0.00 | 67 | 1019.0 |
| 20260508183953 | 59 | 354 | 2.0 | 5.0 | 0.00 | 0.00 | 0.00 | 66 | 1019.0 |
| 20260508183450 | 59 | 341 | 3.0 | 6.0 | 0.00 | 0.00 | 0.00 | 66 | 1018.9 |
| 20260508182952 | 59 | 330 | 4.0 | 7.0 | 0.00 | 0.00 | 0.00 | 66 | 1018.8 |
| 20260508182455 | 59 | 357 | 4.0 | 7.0 | 0.00 | 0.00 | 0.00 | 67 | 1018.8 |
| 20260508181950 | 59 | 12 | 3.0 | 7.0 | 0.00 | 0.00 | 0.00 | 66 | 1018.7 |
| 20260508181449 | 60 | 352 | 3.0 | 5.0 | 0.00 | 0.00 | 0.00 | 67 | 1018.8 |
| 20260508180949 | 60 | 330 | 4.0 | 5.0 | 0.00 | 0.00 | 0.00 | 67 | 1018.7 |
| 20260508180448 | 60 | 330 | 4.0 | 5.0 | 0.00 | 0.00 | 0.00 | 67 | 1018.8 |
| 20260508175945 | 60 | 358 | 4.0 | 8.0 | 0.00 | 0.00 | 0.00 | 66 | 1018.7 |
| 20260508175445 | 60 | 6 | 4.0 | 8.0 | 0.00 | 0.00 | 0.00 | 65 | 1018.7 |
| 20260508174944 | 60 | 335 | 4.0 | 7.0 | 0.00 | 0.00 | 0.00 | 66 | 1018.7 |
| 20260508174445 | 60 | 354 | 4.0 | 9.0 | 0.00 | 0.00 | 0.00 | 66 | 1018.6 |
| 20260508174027 | 61 | 347 | 5.0 | 10.0 | 0.00 | 0.00 | 0.00 | 65 | 1018.6 |
| 20260508172942 | 61 | 354 | 5.0 | 11.0 | 0.00 | 0.00 | 0.00 | 64 | 1018.6 |
| 20260508172443 | 61 | 345 | 5.0 | 9.0 | 0.00 | 0.00 | 0.00 | 64 | 1018.5 |
| 20260508171942 | 61 | 345 | 6.0 | 11.0 | 0.00 | 0.00 | 0.00 | 64 | 1018.4 |
| 20260508171442 | 61 | 302 | 6.0 | 11.0 | 0.00 | 0.00 | 0.00 | 63 | 1018.4 |
| 20260508171025 | 62 | 330 | 5.0 | 9.0 | 0.00 | 0.00 | 0.00 | 63 | 1018.4 |
| 20260508165942 | 62 | 357 | 5.0 | 9.0 | 0.00 | 0.00 | 0.00 | 64 | 1018.3 |
| 20260508165439 | 62 | 308 | 5.0 | 10.0 | 0.00 | 0.00 | 0.00 | 61 | 1018.2 |
| 20260508165004 | 62 | 351 | 5.0 | 10.0 | 0.00 | 0.00 | 0.00 | 61 | 1018.1 |
| 20260508163938 | 62 | 330 | 4.0 | 9.0 | 0.00 | 0.00 | 0.00 | 61 | 1018.0 |
| 20260508163439 | 63 | 347 | 4.0 | 10.0 | 0.00 | 0.00 | 0.00 | 62 | 1018.1 |
| 20260508162937 | 63 | 353 | 3.0 | 10.0 | 0.00 | 0.00 | 0.00 | 62 | 1018.0 |
| 20260508162435 | 63 | 352 | 4.0 | 9.0 | 0.00 | 0.00 | 0.00 | 63 | 1018.0 |
| 20260508161936 | 63 | 6 | 5.0 | 10.0 | 0.00 | 0.00 | 0.00 | 62 | 1018.0 |
| 20260508161509 | 63 | 8 | 6.0 | 12.0 | 0.00 | 0.00 | 0.00 | 61 | 1018.0 |
| 20260508160433 | 63 | 44 | 5.0 | 10.0 | 0.00 | 0.00 | 0.00 | 61 | 1018.0 |
| 20260508155933 | 63 | 49 | 5.0 | 10.0 | 0.00 | 0.00 | 0.00 | 62 | 1018.0 |
| 20260508155436 | 63 | 60 | 6.0 | 11.0 | 0.00 | 0.00 | 0.00 | 60 | 1018.0 |
| 20260508154933 | 63 | 3 | 5.0 | 11.0 | 0.00 | 0.00 | 0.00 | 60 | 1018.0 |
| 20260508154436 | 63 | 2 | 3.0 | 9.0 | 0.00 | 0.00 | 0.00 | 63 | 1018.1 |